Regional Weather Roundup
Issued by NWS

Home | Current Version | Previous Version | Graphics & Text | Print | Product List | Glossary Off
Versions: 1 2 3 4 5 6 7 8 9 10 11 12 13 14 15 16 17 18 19 20 21 22 23 24 25 26 27 28 29 30 31 32 33 34 35 36 37 38 39 40 41 42 43 44 45 46 47 48 49 50

000
ASUS43 KMKX 282200
RWRWI

WISCONSIN REGIONAL WEATHER ROUNDUP
NATIONAL WEATHER SERVICE MILWAUKEE/SULLIVAN WI
500 PM CDT WED SEP 28 2016

NOTE: "FAIR" INDICATES FEW OR NO CLOUDS BELOW 12,000 FEET WITH NO
SIGNIFICANT WEATHER AND/OR OBSTRUCTIONS TO VISIBILITY.

WIZ001-002-006>008-014>016-023>028-282300-
NORTHWEST WISCONSIN

CITY           SKY/WX    TMP DP  RH WIND       PRES   REMARKS
SUPERIOR ARPT  CLOUDY    56  51  81 NE6       30.29R
ASHLAND        CLOUDY    56  51  84 NE13      30.29R
HAYWARD        CLOUDY    57  49  74 N14       30.27R
SIREN          CLOUDY    58  48  69 NE9       30.27R
CUMBERLAND     CLOUDY    55  46  71 NE10G16   30.25R
RICE LAKE      CLOUDY    59  49  69 N12       30.25R
CHETEK         NOT AVBL
LADYSMITH      CLOUDY    61  53  74 N13G21    30.23R
EAU CLAIRE     NOT AVBL
MENOMONIE      CLOUDY    62  51  66 N9        30.20R
NEW RICHMOND   CLOUDY    59  49  68 N12       30.25R
OSCEOLA        CLOUDY    60  50  70 N10G16    30.28R
$$

WIZ003>005-009-010-017-018-282300-
NORTH CENTRAL WISCONSIN

CITY           SKY/WX    TMP DP  RH WIND       PRES   REMARKS
MANITOWISH WTR NOT AVBL
ARBOR VITAE    PTSUNNY   59  51  74 NE8       30.21R
WOODRUFF       PTSUNNY   59  51  74 NE8       30.21R
RHINELANDER    PTSUNNY   59  51  75 CALM      30.21R
EAGLE RIVER    CLOUDY    59  49  68 NE15      30.20R
LAND O LAKES   CLOUDY    56  52  88 NE12G17   30.24R
PHILLIPS       CLOUDY    57  54  88 N12       30.21R
TOMAHAWK       PTSUNNY   61  49  65 NE6       30.20R
MEDFORD        CLOUDY    58  49  73 NE9G17    30.19R
MERRILL        CLOUDY    61  49  65 N8G16     30.18R
$$

WIZ029-030-035-036-043>047-282300-
CENTRAL WISCONSIN

CITY           SKY/WX    TMP DP  RH WIND       PRES   REMARKS
WAUSAU         PTSUNNY   61  47  59 N7        30.16R
MOSINEE        PTSUNNY   61  48  63 NE12      30.17R
MARSHFIELD     CLOUDY    64  47  53 NE10G17   30.16R
STEVENS POINT  PTSUNNY   60  50  69 NE8       30.15R
WAUPACA        MOSUNNY   64  51  61 N8        30.13R
WAUTOMA        MOSUNNY   61  51  70 NE12G18   30.14R
WISC RAPIDS    MOSUNNY   62  50  64 NE9       30.17R
CAMP DOUGLAS   SUNNY     57  52  82 NE6       30.14R
$$

WIZ011>013-019>022-031-037>040-048>050-282300-
NORTHEAST WISCONSIN

CITY           SKY/WX    TMP DP  RH WIND       PRES   REMARKS
ANTIGO         CLOUDY    57  47  69 NE10      30.17R
SHAWANO        MOSUNNY   65  50  58 NE9G17    30.15R
OCONTO         NOT AVBL
STURGEON BAY   SUNNY     63  51  65 NE13      30.15R
GREEN BAY      LGT RAIN  62  54  74 NE20G25   30.13R
MANITOWOC      NOT AVBL
APPLETON       MOSUNNY   63  45  51 NE13G20   30.11R
CLINTONVILLE   MOSUNNY   63  48  59 E13       30.13R
OSHKOSH        SUNNY     63  48  58 NE14G21   30.11R
$$

WIZ032>034-041-042-053>061-282300-
SOUTHWEST WISCONSIN

CITY           SKY/WX    TMP DP  RH WIND       PRES   REMARKS
LA CROSSE      PTSUNNY   66  55  67 N6        30.16R
SPARTA         CLOUDY    62  51  68 NE3       30.15R
VIROQUA        CLOUDY    61  52  71 N8        30.15R
BOSCOBEL       PTSUNNY   64  49  57 NE7       30.13R
PRAIRIE DU CHI CLOUDY    62  50  64 NW9       30.12R
PLATTEVILLE    CLOUDY    60  51  71 N20G28    30.10R
$$

WIZ056-057-062-063-064-067-068-282300-
SOUTH CENTRAL WISCONSIN

CITY           SKY/WX    TMP DP  RH WIND       PRES   REMARKS
REEDSBURG      NOT AVBL
BARABOO/DELLS  PTSUNNY   59  48  66 NE12G17   30.11R
LONE ROCK      NOT AVBL
MINERAL POINT  MOSUNNY   61  54  77 N7        30.11R
MADISON        MOSUNNY   61  51  70 N15       30.09R
MIDDLETON      PTSUNNY   60  51  71 N12       30.10R
WATERTOWN      MOSUNNY   62  50  64 NE10      30.07R
MONROE         MOSUNNY   59  52  77 N13G18    30.07R
JANESVILLE     NOT AVBL
$$

WIZ051-052-058>065-066-070>072-282300-
SOUTHEAST WISCONSIN

CITY           SKY/WX    TMP DP  RH WIND       PRES   REMARKS
MILWAUKEE      CLOUDY    60  50  69 N13G24    30.07R
WAUKESHA       PTSUNNY   59  48  67 NE8       30.08R
MILWAUKEE/TIMM MOSUNNY   59  46  63 NE8       30.08R
RACINE         CLOUDY    58  50  75 N17G28    30.07R
BURLINGTON     CLOUDY    58  46  62 N14       30.05R
KENOSHA        CLOUDY    60  51  72 N14G29    30.05R
FOND DU LAC    SUNNY     63  50  62 NE13      30.12R
SHEBOYGAN      SUNNY     61  50  67 NE16G23   30.10R
WEST BEND      PTSUNNY   59  45  58 NE13G18   30.08R
JUNEAU         MOSUNNY   62  49  60 N14       30.09R
$$

LSZ147-162-282300-
LAKE SUPERIOR

STATION/POSITION TIME  TEMP    WIND        PRES    WAVE
                       AIR SEA DIR/SP/G            HT/PER
                 (UTC) (F)     (DEG/KT/KT) (MB)    (FT/S)
W MID LAKE BUOY  2050   56 53   20/ 10/ 12 1024.5R   3/ 6
DEVILS ISLAND    2100   54      40/ 13/ 14 1025.4R
SAXON HARBOR     2100   56      20/ 15/ 18 1024.4R
$$

LMZ867-665-643>646-282300-
LAKE MICHIGAN

STATION/POSITION TIME  TEMP    WIND        PRES    WAVE
                       AIR SEA DIR/SP/G            HT/PER
                 (UTC) (F)     (DEG/KT/KT) (MB)    (FT/S)
CHAMBERS ISLAND  2100   61      30/ 16/ 17 1020.0R
S GREEN BAY BUOY 2100   62 62   60/ 17/ 21 1019.3R
N MID LAKE BUOY  2050   62 66   30/ 17/ 21 1019.2R   3/ 4
NORTHPORT PIER   2100   63      40/ 11/ 16 1020.3R
SISTER BAY       2108   70      10/ 10/ 14   N/A
KEWAUNEE LAKESHO 2100   60      20/  6/ 11 1018.8R
SHEBOYGAN LAKESH 2100   59      20/ 21/ 23 1018.4R
PORT WASHINGTON  2100   62      20/ 12/ 19 1018.6R
ATWATER BUOY     2100   56 54   20/ 19/ 23 1017.1R
MILWAUKEE LAKESH 2110   57      20/ 19/ 22   N/A
S MID LAKE BUOY  2050   64 69   50/ 19/ 23 1014.3R   4/ 5
KENOSHA   LAKESH 2100   57     360/ 21/ 24 1015.9R
$$

TC  - TEMPERATURE IN CELSIUS
VSB - VISIBILITY IN STATUTE MILES
WCI - WIND CHILL INDEX
HX  - HEAT INDEX




USA.gov is the U.S. government's official web portal to all federal, state and local government web resources and services.